Weather History for Deelen, Netherlands

Change the Weather History Date:

Monday, February 18, 2013

  Actual Average Record
Temperature  
Mean Temperature 38 °F -  
Max Temperature 44 °F 46 °F 51 °F (1998)
Min Temperature 32 °F 34 °F 19 °F (2003)
Degree Days  
Heating Degree Days 27    
Moisture  
Dew Point 31 °F    
Average Humidity 81    
Maximum Humidity 100    
Minimum Humidity 57    
Precipitation  
Precipitation 0.00 in - - ()
Sea Level Pressure  
Sea Level Pressure 30.16 in    
Wind  
Wind Speed 3 mph ()    
Max Wind Speed 7 mph    
Max Gust Speed -    
Visibility 4.6 miles    
Events      
Averages and records for this station are not official NWS values.
T = Trace of Precipitation, MM = Missing Value Source: Averaged Metar Reports

Daily Weather History Graph

Daily Weather History Graph

Search for Another Location

Airport:

Trip Planner

Search our weather history database for the weather conditions in past years. The results will help you decide how hot, cold, wet, or windy it might be!

Date:

Astronomy

Feb. 18, 2013 Rise Set
Actual Time 7:45 AM CET 5:56 PM CET
Civil Twilight 7:10 AM CET 6:30 PM CET
Nautical Twilight 6:31 AM CET 7:10 PM CET
Astronomical Twilight 5:52 AM CET 7:49 PM CET
Moon 11:09 AM CET (2/18) 2:31 AM CET (2/18)
Length of Visible Light 11h 20m
Length of Day
10h 10m
First Quarter, 56% of the Moon is Illuminated
Feb 18
First Quarter
Feb 25
Full
Mar 4
Last Quarter
Mar 11
New
Mar 19
First Quarter

Hourly Weather History & Observations

Time (CET) Temp. Windchill Dew Point Humidity Pressure Visibility Wind Dir Wind Speed Gust Speed Precip Events Conditions
12:25 AM 32.0 °F 27.5 °F 30.2 °F 93% 30.21 in - East 4.6 mph - N/A   Mostly Cloudy
12:55 AM 32.0 °F 28.7 °F 30.2 °F 93% 30.18 in 2.2 mi East 3.5 mph - N/A   Mostly Cloudy
1:25 AM 32.0 °F 27.5 °F 30.2 °F 93% 30.18 in 2.2 mi East 4.6 mph - N/A   Overcast
1:55 AM 33.8 °F 28.6 °F 32.0 °F 93% 30.18 in - East 5.8 mph - N/A   Overcast
2:25 AM 33.8 °F 28.6 °F 32.0 °F 93% 30.18 in 2.2 mi East 5.8 mph - N/A   Overcast
2:55 AM 33.8 °F 27.7 °F 32.0 °F 93% 30.18 in - ESE 6.9 mph - N/A   Overcast
3:25 AM 33.8 °F 28.6 °F 32.0 °F 93% 30.18 in - East 5.8 mph - N/A   Overcast
3:55 AM 33.8 °F 29.6 °F 32.0 °F 93% 30.18 in 1.8 mi ESE 4.6 mph - N/A   Overcast
4:25 AM 33.8 °F 29.6 °F 32.0 °F 93% 30.18 in 1.7 mi ESE 4.6 mph - N/A   Overcast
4:55 AM 33.8 °F 29.6 °F 32.0 °F 93% 30.18 in 1.8 mi ESE 4.6 mph - N/A   Overcast
5:25 AM 32.0 °F 28.7 °F 32.0 °F 100% 30.18 in 1.7 mi East 3.5 mph - N/A   Overcast
5:55 AM 32.0 °F 28.7 °F 30.2 °F 93% 30.18 in 1.6 mi ESE 3.5 mph - N/A   Overcast
6:25 AM 32.0 °F - 30.2 °F 93% 30.18 in 1.7 mi ESE 2.3 mph - N/A   Overcast
6:55 AM 32.0 °F 28.7 °F 30.2 °F 93% 30.18 in 1.6 mi East 3.5 mph - N/A   Overcast
7:25 AM 32.0 °F - 30.2 °F 93% 30.18 in 1.6 mi East 2.3 mph - N/A   Overcast
7:55 AM 32.0 °F - 32.0 °F 100% 30.18 in 1.9 mi East 2.3 mph - N/A   Overcast
8:25 AM 33.8 °F 30.8 °F 32.0 °F 93% 30.18 in 2.8 mi East 3.5 mph - N/A   Overcast
8:55 AM 33.8 °F 30.8 °F 32.0 °F 93% 30.18 in 3.1 mi ESE 3.5 mph - N/A   Overcast
9:25 AM 33.8 °F 29.6 °F 30.2 °F 87% 30.18 in 3.1 mi ESE 4.6 mph - N/A   Overcast
9:55 AM 35.6 °F - 32.0 °F 87% 30.18 in 4.3 mi East 2.3 mph - N/A   Overcast
10:25 AM 35.6 °F - 32.0 °F 87% 30.18 in 6.2 mi East 1.2 mph - N/A   Overcast
10:55 AM 37.4 °F 34.9 °F 32.0 °F 81% 30.18 in 6.2 mi SSE 3.5 mph - N/A   Overcast
11:25 AM 39.2 °F 35.0 °F 30.2 °F 70% 30.18 in 6.2 mi South 5.8 mph - N/A   Overcast
11:55 AM 39.2 °F 37.0 °F 30.2 °F 70% 30.18 in 6.2 mi South 3.5 mph - N/A   Overcast
12:03 PM 39.2 °F 35.9 °F 30.2 °F 70% 30.18 in 6.2 mi South 4.6 mph - N/A   Overcast
12:25 PM 39.2 °F - 30.2 °F 70% 30.18 in 6.2 mi South 2.3 mph - N/A   Overcast
12:55 PM 42.8 °F - 30.2 °F 61% 30.18 in 6.2 mi South 2.3 mph - N/A   Mostly Cloudy
1:25 PM 44.6 °F - 32.0 °F 61% 30.18 in 6.2 mi South 2.3 mph - N/A   Mostly Cloudy
1:55 PM 42.8 °F - 30.2 °F 61% 30.15 in 6.2 mi ESE 2.3 mph - N/A   Overcast
2:25 PM 42.8 °F - 28.4 °F 57% 30.15 in 6.2 mi NNW 2.3 mph - N/A   Mostly Cloudy
2:55 PM 42.8 °F - 28.4 °F 57% 30.15 in 6.2 mi SE 1.2 mph - N/A   Overcast
3:25 PM 42.8 °F - 30.2 °F 61% 30.15 in 6.2 mi South 2.3 mph - N/A   Overcast
3:44 PM 42.8 °F - 30.2 °F 61% 30.15 in 6.2 mi South 1.2 mph - N/A   Overcast
3:55 PM 42.8 °F - 30.2 °F 61% 30.15 in 6.2 mi WSW 2.3 mph - N/A   Overcast
4:25 PM 42.8 °F 41.1 °F 30.2 °F 61% 30.15 in 6.2 mi WNW 3.5 mph - N/A   Overcast
4:55 PM 41.0 °F - 30.2 °F 65% 30.15 in 6.2 mi WNW 2.3 mph - N/A   Overcast
5:25 PM 41.0 °F 37.1 °F 32.0 °F 70% 30.15 in 6.2 mi SE 5.8 mph - N/A   Overcast
5:55 PM 41.0 °F 37.1 °F 32.0 °F 70% 30.12 in 6.2 mi SE 5.8 mph - N/A   Overcast
6:25 PM 39.2 °F - 32.0 °F 75% 30.12 in 6.2 mi SE 2.3 mph - N/A   Overcast
6:32 PM 39.2 °F - 32.0 °F 75% 30.12 in 6.2 mi ESE 2.3 mph - N/A   Overcast
6:55 PM 39.2 °F - 30.2 °F 70% 30.12 in 6.2 mi East 1.2 mph - N/A   Overcast
7:25 PM 39.2 °F - 32.0 °F 75% 30.12 in 6.2 mi East 2.3 mph - N/A   Overcast
7:55 PM 37.4 °F 32.8 °F 32.0 °F 81% 30.12 in 6.2 mi South 5.8 mph - N/A   Overcast
8:25 PM 35.6 °F - 32.0 °F 87% 30.12 in 6.2 mi South 1.2 mph - N/A   Overcast
8:55 PM 35.6 °F - 30.2 °F 81% 30.12 in 6.2 mi Calm Calm - N/A   Mostly Cloudy
9:25 PM 33.8 °F - 30.2 °F 87% 30.12 in 6.2 mi South 1.2 mph - N/A   Scattered Clouds
9:55 PM 33.8 °F - 30.2 °F 87% 30.12 in 6.2 mi SSW 2.3 mph - N/A   Overcast
10:25 PM 33.8 °F - 30.2 °F 87% 30.12 in 4.3 mi SSE 1.2 mph - N/A   Mostly Cloudy
10:42 PM 33.8 °F - 30.2 °F 87% 30.12 in 5.0 mi SSE 1.2 mph - N/A   Mostly Cloudy
10:55 PM 32.0 °F - 28.4 °F 87% 30.12 in 3.7 mi East 1.2 mph - N/A   Mostly Cloudy
11:25 PM 32.0 °F - 28.4 °F 87% 30.12 in 3.7 mi SE 2.3 mph - N/A   Mostly Cloudy
11:55 PM 32.0 °F - 28.4 °F 87% 30.12 in 3.7 mi SE 1.2 mph - N/A   Mostly Cloudy